Simultaneous Nadir Overpasses (SNOs) Predictions

Prediction of SNOs between METOP-A and NOAA-19 Satellite Orbit:

Table of predicted SNOs for the next 14.0 days since TLE Epoch: 12/28/2012
Index Date (METOP-A) Time (METOP-A) Lat,Lon (METOP-A) SZA (METOP-A ) Date (NOAA-19) Time (NOAA-19) Lat,Lon (NOAA-19) SZA (NOAA-19 ) Distance(km) Time Diff (sec)
1 12/30/2012 14:24:48 73.95, -41.98 97.06 12/30/2012 14:23:41 73.92, -44.86 97.15 88.50 67
2 12/30/2012 15:15:41 -73.37, 124.00 83.48 12/30/2012 15:14:26 -73.37, 123.73 83.46 8.57 75
3 12/30/2012 16:06:23 73.28, -68.88 96.44 12/30/2012 16:05:33 73.29, -68.87 96.46 1.83 50
4 12/30/2012 16:57:04 -73.30, 98.50 83.55 12/30/2012 16:56:29 -73.28, 98.42 83.56 3.32 35
5 12/30/2012 17:47:45 73.25, -94.27 96.41 12/30/2012 17:47:37 73.25, -94.30 96.41 1.09 8
6 12/30/2012 18:38:27 -73.23, 73.00 83.62 12/30/2012 18:38:33 -73.24, 72.99 83.61 1.39 6
7 12/30/2012 19:29:07 73.23,-119.66 96.39 12/30/2012 19:29:41 73.21,-119.72 96.36 3.29 34
8 12/30/2012 20:19:49 -73.20, 47.61 83.64 12/30/2012 20:20:37 -73.20, 47.57 83.66 1.62 48
9 12/30/2012 21:10:31 73.11,-145.26 96.27 12/30/2012 21:11:44 73.12,-145.04 96.26 7.36 73
10 12/30/2012 22:01:23 -72.58, 20.95 84.22 12/30/2012 22:02:30 -72.61, 23.33 84.29 79.08 67
11 01/09/2013 14:17:54 73.32, -41.69 95.44 01/09/2013 14:16:43 73.33, -41.70 95.46 0.48 71
12 01/09/2013 15:08:36 -73.31, 125.61 84.58 01/09/2013 15:07:39 -73.32, 125.58 84.56 1.68 57
13 01/09/2013 15:59:16 73.30, -67.08 95.41 01/09/2013 15:58:47 73.29, -67.13 95.41 1.92 29
14 01/09/2013 16:49:58 -73.28, 100.21 84.61 01/09/2013 16:49:43 -73.28, 100.15 84.61 2.09 15
15 01/09/2013 17:40:39 73.22, -92.59 95.33 01/09/2013 17:40:51 73.25, -92.56 95.35 2.79 12
16 01/09/2013 18:31:21 -73.21, 74.71 84.69 01/09/2013 18:31:47 -73.24, 74.72 84.66 3.61 26
17 01/09/2013 19:22:01 73.20,-117.98 95.30 01/09/2013 19:22:55 73.21,-117.99 95.30 0.99 54
18 01/09/2013 20:12:43 -73.19, 49.32 84.72 01/09/2013 20:13:51 -73.20, 49.29 84.71 2.14 68




NCC Satellite Simultaneous Nadir Overpasses (SNOs) Prediction Service
